Change the Weather History Date:

Wednesday, November 23, 2011

  Actual Average Record
Temperature  
Mean Temperature 50 °F 47 °F  
Max Temperature 61 °F 53 °F 76 °F (1933)
Min Temperature 39 °F 42 °F 26 °F (1929)
Degree Days  
Heating Degree Days 15 18  
Month to date heating degree days 381 359  
Since 1 July heating degree days 1227 1325  
Cooling Degree Days 0 0  
Month to date cooling degree days 0 0  
Year to date cooling degree days 1 2  
Moisture  
Dew Point 40 °F    
Average Humidity 70    
Maximum Humidity 79    
Minimum Humidity 51    
Precipitation  
Precipitation 1.27 in 0.38 in 2.86 in (1961)
Month to date precipitation 4.93 7.54  
Year to date precipitation 35.84 51.09  
Sea Level Pressure  
Sea Level Pressure 29.73 in    
Wind  
Wind Speed 12 mph (SSW)    
Max Wind Speed 29 mph    
Max Gust Speed 46 mph    
Visibility 9 miles    
Events      
T = Trace of Precipitation, MM = Missing Value Source: NWS Daily Summary

Daily Weather History Graph

Daily Weather History Graph

Search for Another Location

Airport or City:

Trip Planner

Search our weather history database for the weather conditions in past years. The results will help you decide how hot, cold, wet, or windy it might be!

Date:

Astronomy

Nov. 23, 2011 Rise Set
Actual Time 7:20 AM PST 4:46 PM PST
Civil Twilight 6:48 AM PST 5:17 PM PST
Nautical Twilight 6:13 AM PST 5:52 PM PST
Astronomical Twilight 5:39 AM PST 6:26 PM PST
Moon 5:30 AM PST (11/23) 3:32 PM PST (11/23)
Length of Visible Light 10h 28m
Length of Day
9h 25m
Waning Crescent, 3% of the Moon is Illuminated
Nov 23
Waning Crescent
Nov 24
New
Dec 2
First Quarter
Dec 10
Full
Dec 17
Last Quarter

Hourly Weather History & Observations

Time (PST) Temp. Windchill Dew Point Humidity Pressure Visibility Wind Dir Wind Speed Gust Speed Precip Events Conditions
12:15 AM 60.8 °F - 44.6 °F 55% 29.60 in 10.0 mi South 21.9 mph 33.4 mph N/A   Overcast
12:35 AM 60.8 °F - 44.6 °F 55% 29.58 in 10.0 mi South 29.9 mph 39.1 mph N/A   Overcast
12:55 AM 60.8 °F - 44.6 °F 55% 29.59 in 10.0 mi South 28.8 mph 35.7 mph N/A   Mostly Cloudy
1:15 AM 60.8 °F - 44.6 °F 55% 29.59 in 10.0 mi South 26.5 mph 34.5 mph N/A   Overcast
1:35 AM 60.8 °F - 42.8 °F 52% 29.59 in 10.0 mi South 31.1 mph 40.3 mph N/A   Overcast
1:55 AM 57.2 °F - 42.8 °F 59% 29.59 in 10.0 mi South 19.6 mph 40.3 mph N/A   Overcast
2:15 AM 57.2 °F - 44.6 °F 63% 29.59 in 10.0 mi South 25.3 mph 33.4 mph N/A   Overcast
2:35 AM 60.8 °F - 44.6 °F 55% 29.58 in 10.0 mi South 28.8 mph 39.1 mph N/A   Overcast
2:55 AM 60.8 °F - 42.8 °F 52% 29.58 in 10.0 mi South 20.7 mph 46.0 mph N/A   Overcast
3:15 AM 60.8 °F - 42.8 °F 52% 29.57 in 10.0 mi South 23.0 mph 41.4 mph N/A   Overcast
3:35 AM 60.8 °F - 42.8 °F 52% 29.56 in 10.0 mi South 29.9 mph 41.4 mph N/A   Overcast
3:55 AM 59.0 °F - 42.8 °F 55% 29.55 in 10.0 mi South 23.0 mph 42.6 mph N/A   Overcast
4:15 AM 57.2 °F - 42.8 °F 59% 29.56 in 10.0 mi South 25.3 mph 36.8 mph N/A   Overcast
4:35 AM 57.2 °F - 44.6 °F 63% 29.57 in 10.0 mi South 19.6 mph 33.4 mph 0.01 in   Overcast
4:55 AM 55.4 °F - 44.6 °F 67% 29.59 in 10.0 mi South 18.4 mph 26.5 mph 0.02 in   Overcast
5:15 AM 55.4 °F - 44.6 °F 67% 29.59 in 10.0 mi South 12.7 mph - N/A   Overcast
5:35 AM 55.4 °F - 44.6 °F 67% 29.62 in 10.0 mi West 10.4 mph - 0.04 in   Overcast
5:55 AM 51.8 °F - 42.8 °F 71% 29.63 in 7.0 mi WSW 16.1 mph 34.5 mph 0.06 in   Mostly Cloudy
6:15 AM 50.0 °F - 42.8 °F 76% 29.64 in 8.0 mi West 23.0 mph 34.5 mph 0.03 in   Overcast
6:35 AM 51.8 °F - 42.8 °F 71% 29.64 in 5.0 mi West 25.3 mph 35.7 mph 0.07 in   Overcast
6:55 AM 50.0 °F - 42.8 °F 76% 29.65 in 8.0 mi SW 12.7 mph 18.4 mph 0.28 in   Overcast
7:15 AM 51.8 °F - 44.6 °F 76% 29.65 in 6.0 mi SW 18.4 mph 24.2 mph 0.17 in   Mostly Cloudy
7:35 AM 51.8 °F - 44.6 °F 76% 29.66 in 10.0 mi SW 19.6 mph 27.6 mph 0.26 in   Overcast
7:55 AM 50.0 °F - 42.8 °F 76% 29.67 in 7.0 mi NW 15.0 mph 23.0 mph 0.35 in   Overcast
8:15 AM 48.2 °F - 41.0 °F 76% 29.70 in 9.0 mi WNW 17.3 mph - 0.07 in   Mostly Cloudy
8:35 AM 48.2 °F - 41.0 °F 76% 29.71 in 10.0 mi NNW 9.2 mph - 0.13 in   Mostly Cloudy
8:55 AM 46.4 °F 41.5 °F 39.2 °F 76% 29.71 in 10.0 mi NNW 10.4 mph 19.6 mph 0.15 in   Overcast
9:15 AM 46.4 °F 42.9 °F 39.2 °F 76% 29.72 in 10.0 mi NNW 6.9 mph - 0.01 in   Overcast
9:35 AM 46.4 °F 42.9 °F 39.2 °F 76% 29.73 in 10.0 mi NNW 6.9 mph - 0.03 in   Overcast
9:55 AM 46.4 °F 43.5 °F 39.2 °F 76% 29.75 in 8.0 mi NNW 5.8 mph - N/A   Mostly Cloudy
10:15 AM 48.2 °F - 41.0 °F 76% 29.76 in 8.0 mi West 10.4 mph - 0.02 in   Overcast
10:35 AM 46.4 °F 42.4 °F 39.2 °F 76% 29.77 in 8.0 mi NW 8.1 mph - 0.05 in   Mostly Cloudy
10:55 AM 46.4 °F 42.9 °F 39.2 °F 76% 29.77 in 8.0 mi NNW 6.9 mph - 0.10 in   Overcast
11:15 AM 46.4 °F 43.5 °F 39.2 °F 76% 29.78 in 10.0 mi NW 5.8 mph - 0.03 in   Overcast
11:35 AM 46.4 °F 44.3 °F 39.2 °F 76% 29.79 in 10.0 mi NNW 4.6 mph - 0.06 in   Overcast
11:55 AM 46.4 °F 44.3 °F 39.2 °F 76% 29.80 in 9.0 mi North 4.6 mph - 0.09 in   Mostly Cloudy
12:15 PM 46.4 °F 45.2 °F 39.2 °F 76% 29.81 in 8.0 mi NNW 3.5 mph - 0.01 in   Overcast
12:35 PM 46.4 °F 43.5 °F 39.2 °F 76% 29.80 in 10.0 mi North 5.8 mph - 0.02 in   Mostly Cloudy
12:55 PM 46.4 °F 43.5 °F 37.4 °F 71% 29.81 in 10.0 mi North 5.8 mph - 0.04 in   Overcast
1:15 PM 46.4 °F 44.3 °F 37.4 °F 71% 29.81 in 10.0 mi North 4.6 mph - 0.01 in   Overcast
1:35 PM 46.4 °F - 37.4 °F 71% 29.81 in 10.0 mi Calm Calm - 0.03 in   Overcast
1:55 PM 46.4 °F - 37.4 °F 71% 29.81 in 10.0 mi Calm Calm - 0.04 in   Overcast
2:15 PM 46.4 °F - 37.4 °F 71% 29.82 in 6.0 mi Calm Calm - 0.02 in   Overcast
2:35 PM 46.4 °F 45.2 °F 37.4 °F 71% 29.82 in 9.0 mi SE 3.5 mph - 0.04 in   Overcast
2:55 PM 44.6 °F 43.1 °F 37.4 °F 76% 29.84 in 9.0 mi SSE 3.5 mph - 0.05 in   Overcast
3:15 PM 44.6 °F 41.4 °F 37.4 °F 76% 29.85 in 8.0 mi SSE 5.8 mph - 0.01 in   Overcast
3:35 PM 44.6 °F 41.4 °F 37.4 °F 76% 29.85 in 10.0 mi SE 5.8 mph - 0.02 in   Overcast
3:55 PM 44.6 °F 39.7 °F 37.4 °F 76% 29.85 in 10.0 mi SE 9.2 mph - 0.02 in   Overcast
4:15 PM 44.6 °F 40.2 °F 37.4 °F 76% 29.85 in 10.0 mi SE 8.1 mph - N/A   Overcast
4:35 PM 44.6 °F 40.7 °F 37.4 °F 76% 29.87 in 10.0 mi SE 6.9 mph - N/A   Overcast
4:55 PM 44.6 °F 40.7 °F 37.4 °F 76% 29.88 in 10.0 mi SSE 6.9 mph - N/A   Overcast
5:15 PM 44.6 °F 40.7 °F 37.4 °F 76% 29.88 in 10.0 mi SE 6.9 mph - N/A   Overcast
5:35 PM 44.6 °F 40.2 °F 37.4 °F 76% 29.89 in 10.0 mi SE 8.1 mph - N/A   Scattered Clouds
5:55 PM 44.6 °F 41.4 °F 37.4 °F 76% 29.89 in 10.0 mi SE 5.8 mph - N/A   Scattered Clouds
6:15 PM 42.8 °F 41.1 °F 35.6 °F 76% 29.90 in 10.0 mi SE 3.5 mph - N/A   Scattered Clouds
6:35 PM 42.8 °F 41.1 °F 37.4 °F 81% 29.91 in 10.0 mi South 3.5 mph - N/A   Clear
6:55 PM 41.0 °F 38.0 °F 35.6 °F 81% 29.91 in 10.0 mi SE 4.6 mph - N/A   Clear
7:15 PM 42.8 °F 39.3 °F 35.6 °F 76% 29.92 in 10.0 mi SE 5.8 mph - N/A   Clear
7:35 PM 42.8 °F 38.6 °F 35.6 °F 76% 29.92 in 10.0 mi SE 6.9 mph - N/A   Clear
7:55 PM 42.8 °F 38.6 °F 35.6 °F 76% 29.93 in 10.0 mi SE 6.9 mph - N/A   Clear
8:15 PM 41.0 °F 36.4 °F 35.6 °F 81% 29.93 in 9.0 mi SE 6.9 mph - N/A   Scattered Clouds
8:35 PM 41.0 °F 35.8 °F 35.6 °F 81% 29.93 in 5.0 mi SE 8.1 mph - N/A   Overcast
8:55 PM 41.0 °F 35.8 °F 35.6 °F 81% 29.94 in 10.0 mi SE 8.1 mph - N/A   Overcast
9:15 PM 41.0 °F 35.2 °F 35.6 °F 81% 29.95 in 3.0 mi SE 9.2 mph - N/A   Overcast
9:35 PM 41.0 °F 35.2 °F 33.8 °F 76% 29.94 in 2.0 mi ESE 9.2 mph - N/A   Overcast
9:55 PM 41.0 °F 35.2 °F 33.8 °F 76% 29.94 in 1.5 mi SE 9.2 mph - N/A   Overcast
10:15 PM 41.0 °F 35.2 °F 35.6 °F 81% 29.95 in 1.0 mi SSE 9.2 mph - N/A   Overcast
10:35 PM 41.0 °F 35.8 °F 33.8 °F 76% 29.94 in 0.8 mi SSE 8.1 mph - N/A   Overcast
10:55 PM 39.2 °F 33.6 °F 33.8 °F 81% 29.95 in 5.0 mi SE 8.1 mph - N/A   Overcast
11:15 PM 39.2 °F 34.2 °F 33.8 °F 81% 29.95 in 10.0 mi SSE 6.9 mph - N/A   Overcast
11:35 PM 39.2 °F 33.6 °F 33.8 °F 81% 29.95 in 9.0 mi SSE 8.1 mph - N/A   Overcast
11:55 PM 39.2 °F 33.0 °F 33.8 °F 81% 29.95 in 9.0 mi SSE 9.2 mph - N/A   Overcast